Flag for U.S.A. Weather past 2 weeks in Montpelier, Vermont, U.S.A.

Now
63 °F

Fog.


Feels Like: 63 °F
Forecast: 57 / 81 °F
Wind: No wind

Location: Knapp State Airport

Current Time: Sep 3, 2015 at 12:54:01 AM

Latest Report: Sep 2, 2015 at 11:51 PM


Visibility: 4 mi

Pressure: 29.95 "Hg

Humidity: 97%

Dew point: 62 °F

Location of MontpelierLocation

Historic Weather in Montpelier — Graph

°F

Montpelier temperature yesterday

Maximum temperature yesterday: 82 °F (at 2:51 PM)
Minimum temperature yesterday: 54 °F (at 3:51 AM)
Average temperature yesterday: 66 °F

Past Weeks' High & Low Weather Summary

 TemperatureHumidityPressure
High86 °F (Aug 19, 2:51 PM)100% (Aug 19, 7:51 AM)30.26 "Hg (Aug 19, 7:51 AM)
Low48 °F (Aug 28, 5:04 AM)35% (Aug 19, 4:51 PM)29.86 "Hg (Aug 24, 4:51 PM)
Average67 °F78%30.06 "Hg
* Reported Aug 18 10:51 PM — Sep 2 10:51 PM, Montpelier, Weather by CustomWeather, © 2015

Note: Actual official high and low records may vary slightly from our data, if they occured in-between our weather recording intervals... More about our weather records

Advertising

Montpelier weather history for previous 24 hours

 ConditionsComfort  
Time TempWeatherWind HumidityBarometerVisibility
10:51 PM
Wed, Sep 2
64 °FFog.3 mph94%29.95 "Hg6 mi
9:51 PM67 °FClear.No wind87%29.95 "Hg7 mi
8:51 PM66 °FClear.No wind87%29.96 "Hg7 mi
7:51 PM69 °FSunny.No wind84%29.96 "Hg8 mi
6:51 PM73 °FSunny.No wind81%29.95 "Hg7 mi
5:51 PM77 °FSunny.No wind66%29.95 "Hg8 mi
4:51 PM79 °FSunny.3 mph60%29.96 "Hg8 mi
3:51 PM80 °FSunny.6 mph58%29.98 "Hg9 mi
2:51 PM82 °FSunny.9 mph51%29.99 "Hg9 mi
1:51 PM81 °FSunny.10 mph53%30.01 "Hg9 mi
12:51 PM80 °FSunny.5 mph62%30.01 "Hg10 mi
11:51 AM76 °FSunny.No wind67%30.03 "Hg10 mi
10:51 AM72 °FSunny.No wind71%30.05 "Hg10 mi
9:51 AM64 °FSunny.No wind87%30.06 "Hg10 mi
8:58 AM60 °FPartly sunny.No wind93%30.07 "Hg8 mi
7:51 AM57 °FFog.No wind100%30.07 "Hg0 mi
6:51 AM55 °FFog.No wind96%30.07 "Hg0 mi
5:51 AM56 °FFog.No wind97%30.06 "Hg0 mi
4:51 AM56 °FFog.No wind97%30.05 "Hg0 mi
3:51 AM54 °FFog.No wind97%30.06 "Hg1 mi
3:04 AM56 °FFog.No wind97%30.07 "Hg1 mi
2:56 AM56 °FFog.No wind97%30.07 "Hg1 mi
1:51 AM58 °FFog.No wind97%30.08 "Hg0 mi
12:51 AM58 °FClear.No wind97%30.08 "Hg7 mi
Weather by CustomWeather, © 2015

See weather overviewHow to use our weather pages